This is the latest recevied weather packets stored in our database for station/object S51UL-6. If no packets are shown the sender has not sent any weather packets the latest 10 day(s).
| Time | Temp. | Humidity | Pressure | Rain* | Wind** | Luminosity | Snow |
|---|---|---|---|---|---|---|---|
| 1787652511 | 22.22° C | 77% | 1013.6 hPa | 0 mm | - | - | - |
| 1787651910 | 21.67° C | 81% | 1013.9 hPa | 0 mm | - | - | - |
| 1787651610 | 21.11° C | 82% | 1014.1 hPa | 0 mm | - | - | - |
| 1787651310 | 20.56° C | 83% | 1014.2 hPa | 0 mm | - | - | - |
| 1787651010 | 20° C | 85% | 1014.3 hPa | 0 mm | - | - | - |
| 1787650710 | 19.44° C | 86% | 1014.4 hPa | 0 mm | - | - | - |
| 1787650410 | 19.44° C | 87% | 1014.4 hPa | 0.51 mm | - | - | - |
| 1787649511 | 17.78° C | 88% | 1014.6 hPa | 0.51 mm | - | - | - |
| 1787648610 | 17.22° C | 87% | 1014.5 hPa | 0.51 mm | - | - | - |
| 1787648311 | 17.22° C | 87% | 1014.5 hPa | 0.51 mm | - | - | - |
| 1787648010 | 17.22° C | 87% | 1014.5 hPa | 0.51 mm | - | - | - |
| 1787647110 | 16.67° C | 86% | 1014.5 hPa | 0 mm | - | - | - |
| 1787646811 | 16.67° C | 86% | 1014.7 hPa | 0 mm | - | - | - |
| 1787646511 | 17.22° C | 86% | 1014.8 hPa | 0 mm | - | - | - |
| 1787646212 | 16.67° C | 85% | 1014.7 hPa | 0 mm | - | - | - |
| 1787645911 | 17.22° C | 85% | 1014.7 hPa | 0 mm | - | - | - |
| 1787645611 | 17.22° C | 85% | 1014.7 hPa | 0 mm | - | - | - |
| 1787645311 | 17.22° C | 85% | 1014.7 hPa | 0 mm | - | - | - |
| 1787644412 | 17.22° C | 85% | 1014.9 hPa | 0 mm | - | - | - |
| 1787644111 | 17.22° C | 85% | 1014.9 hPa | 0 mm | - | - | - |
| 1787643812 | 17.22° C | 84% | 1014.8 hPa | 0 mm | - | - | - |
| 1787643511 | 17.78° C | 84% | 1014.7 hPa | 0 mm | - | - | - |
| 1787643211 | 17.78° C | 84% | 1014.8 hPa | 0 mm | - | - | - |
| 1787642912 | 17.78° C | 84% | 1014.7 hPa | 0 mm | - | - | - |
| 1787642614 | 17.78° C | 84% | 1014.7 hPa | 0 mm | - | - | - |
* Rain latest hour (hover to see other rain measurements)
** Current wind speed in m/s (hover to see current wind gust speed)